Date String (YYYY-MM-DD hh:mm:ss) UTC,Instrument flags,Ambient pressure (hPa),Sample flow (lpm),Bypass flow (lpm),Sample temperature (°C),Ambient temperature (°C),ASC tube jacket temperature (°C),LED temperature (°C),Box temperature (°C),Sample RH (%),Span deviation,Mass concentration (μg/m³),Mass concentration (μg/m³),Mass concentration (μg/m³)
DateTimeUTC,F1_M11,P_M11,Q1_M11,Q2_M11,T1_M11,T2_M11,T3_M11,T4_M11,T5_M11,U1_M11,ZSPAN_M11,X0_M11,X2_M11,X1_M11
2022-11-28 04:00:00,,0815.1,5.01,0.00,21.8,20.4,00.0,30.7,23.7,09.4,0000.0,0001.92,0000.80,0000.63
2022-11-28 04:01:00,,0814.9,5.01,0.00,21.8,20.4,00.0,30.7,23.6,09.6,0000.0,0001.97,0000.83,0000.64
2022-11-28 04:02:00,,0814.9,5.00,0.00,21.8,20.3,00.0,30.7,23.6,09.6,0000.0,0001.97,0000.84,0000.64
2022-11-28 04:03:00,,0814.9,5.00,0.00,21.7,20.3,00.0,30.7,23.5,09.4,0000.0,0002.00,0000.83,0000.65
2022-11-28 04:04:00,,0814.9,4.99,0.00,21.7,20.3,00.0,30.7,23.5,09.4,0000.0,0001.97,0000.81,0000.65
2022-11-28 04:05:00,,0815.0,4.99,0.00,21.7,20.3,00.0,30.7,23.5,09.6,0000.0,0001.62,0000.80,0000.65
2022-11-28 04:06:00,,0815.0,5.01,0.00,21.7,20.3,00.0,30.7,23.5,09.6,0000.0,0001.62,0000.83,0000.66
2022-11-28 04:07:00,,0815.1,5.01,0.00,21.7,20.3,00.0,30.7,23.4,09.5,0000.0,0001.64,0000.84,0000.68
2022-11-28 04:08:00,,0815.0,4.99,0.00,21.7,20.3,00.0,30.7,23.4,09.6,0000.0,0001.66,0000.85,0000.69
2022-11-28 04:09:00,,0815.0,4.99,0.00,21.7,20.3,00.0,30.6,23.4,09.7,0000.0,0001.49,0000.88,0000.70
2022-11-28 04:10:00,,0815.0,4.99,0.00,21.7,20.2,00.0,30.6,23.4,09.7,0000.0,0001.42,0000.88,0000.70
2022-11-28 04:11:00,,0815.0,5.00,0.00,21.7,20.2,00.0,30.6,23.4,09.6,0000.0,0001.43,0000.88,0000.70
2022-11-28 04:12:00,,0814.8,5.00,0.00,21.6,20.2,00.0,30.6,23.3,09.6,0000.0,0001.39,0000.87,0000.70
2022-11-28 04:13:00,,0814.8,5.02,0.00,21.6,20.2,00.0,30.6,23.3,09.7,0000.0,0001.40,0000.86,0000.70
2022-11-28 04:14:00,,0814.9,5.00,0.00,21.6,20.1,00.0,30.6,23.3,09.6,0000.0,0001.37,0000.87,0000.70
2022-11-28 04:15:00,,0814.8,5.00,0.00,21.6,20.1,00.0,30.6,23.3,09.7,0000.0,0001.31,0000.87,0000.70
2022-11-28 04:16:00,,0814.7,5.00,0.00,21.6,20.1,00.0,30.6,23.2,09.8,0000.0,0001.30,0000.86,0000.70
2022-11-28 04:17:00,,0814.8,5.00,0.00,21.6,20.1,00.0,30.6,23.2,09.8,0000.0,0001.29,0000.84,0000.69
2022-11-28 04:18:00,,0814.9,4.99,0.00,21.6,20.1,00.0,30.6,23.3,09.8,0000.0,0001.37,0000.84,0000.68
2022-11-28 04:19:00,,0814.9,5.00,0.00,21.6,20.1,00.0,30.6,23.3,09.7,0000.0,0001.34,0000.83,0000.68
2022-11-28 04:20:00,,0815.1,5.02,0.00,21.6,20.1,00.0,30.6,23.3,09.8,0000.0,0001.30,0000.81,0000.67
2022-11-28 04:21:00,,0815.1,5.00,0.00,21.6,20.2,00.0,30.6,23.4,09.6,0000.0,0001.26,0000.80,0000.67
2022-11-28 04:22:00,,0815.1,4.99,0.00,21.6,20.2,00.0,30.6,23.4,09.7,0000.0,0001.24,0000.80,0000.67
2022-11-28 04:23:00,,0814.9,5.00,0.00,21.6,20.2,00.0,30.6,23.4,09.5,0000.0,0001.25,0000.80,0000.67
2022-11-28 04:24:00,,0814.9,5.00,0.00,21.6,20.2,00.0,30.6,23.4,09.6,0000.0,0001.20,0000.78,0000.67
2022-11-28 04:25:00,,0814.4,5.00,0.00,21.6,20.2,00.0,30.6,23.4,09.6,0000.0,0001.17,0000.77,0000.66
2022-11-28 04:26:00,,0814.4,5.00,0.00,21.6,20.3,00.0,30.6,23.5,09.7,0000.0,0001.15,0000.77,0000.66
2022-11-28 04:27:00,,0814.4,5.01,0.00,21.6,20.2,00.0,30.6,23.3,09.6,0000.0,0001.15,0000.77,0000.66
2022-11-28 04:28:00,,0814.4,5.01,0.00,21.6,20.2,00.0,30.5,23.3,09.6,0000.0,0001.09,0000.75,0000.66
2022-11-28 04:29:00,,0814.4,5.00,0.00,21.6,20.7,00.0,30.5,23.5,09.8,0000.0,0001.00,0000.73,0000.66
2022-11-28 04:30:00,,0814.6,5.00,0.00,21.7,21.7,00.0,30.5,23.8,09.7,0000.0,0001.01,0000.74,0000.66
2022-11-28 04:31:00,,0814.2,5.00,0.00,21.8,21.9,00.0,30.5,23.9,09.7,0000.0,0000.99,0000.73,0000.65
2022-11-28 04:32:00,,0814.2,4.99,0.00,21.9,21.6,00.0,30.6,23.9,09.5,0000.0,0001.02,0000.73,0000.65
2022-11-28 04:33:00,,0814.4,4.99,0.00,21.9,21.4,00.0,30.7,23.9,09.5,0000.0,0001.11,0000.75,0000.66
2022-11-28 04:34:00,,0814.0,5.01,0.00,21.9,21.2,00.0,30.7,23.8,09.3,0000.0,0001.59,0000.74,0000.65
2022-11-28 04:35:00,,0814.1,5.00,0.00,21.9,21.0,00.0,30.7,23.8,09.2,0000.0,0001.59,0000.74,0000.66
2022-11-28 04:36:00,,0814.1,5.00,0.00,21.9,20.9,00.0,30.7,23.8,09.4,0000.0,0001.58,0000.74,0000.65
2022-11-28 04:37:00,,0814.1,5.00,0.00,21.9,20.8,00.0,30.7,23.7,09.4,0000.0,0001.66,0000.72,0000.65
2022-11-28 04:38:00,,0814.1,5.00,0.00,21.9,20.7,00.0,30.7,23.7,09.4,0000.0,0001.63,0000.71,0000.64
2022-11-28 04:39:00,,0814.3,5.00,0.00,21.9,20.6,00.0,30.7,23.7,09.5,0000.0,0001.61,0000.71,0000.64
2022-11-28 04:40:00,,0813.9,5.00,0.00,21.9,20.6,00.0,30.7,23.7,09.5,0000.0,0001.59,0000.71,0000.63
2022-11-28 04:41:00,,0813.8,5.00,0.00,21.8,20.5,00.0,30.7,23.7,09.3,0000.0,0001.59,0000.71,0000.62
2022-11-28 04:42:00,,0814.1,4.99,0.00,21.8,20.4,00.0,30.7,23.6,09.3,0000.0,0001.59,0000.71,0000.61
2022-11-28 04:43:00,,0814.0,5.00,0.00,21.8,20.4,00.0,30.7,23.6,09.2,0000.0,0001.65,0000.72,0000.60
2022-11-28 04:44:00,,0814.1,5.00,0.00,21.8,20.3,00.0,30.7,23.5,09.2,0000.0,0001.69,0000.73,0000.59
2022-11-28 04:45:00,,0814.1,5.00,0.00,21.8,20.3,00.0,30.7,23.5,09.4,0000.0,0001.13,0000.71,0000.57
2022-11-28 04:46:00,,0813.9,5.01,0.00,21.7,20.3,00.0,30.7,23.4,09.5,0000.0,0001.13,0000.71,0000.56
2022-11-28 04:47:00,,0814.0,5.00,0.00,21.7,20.3,00.0,30.7,23.5,09.5,0000.0,0001.12,0000.70,0000.55
2022-11-28 04:48:00,,0814.0,5.00,0.00,21.7,20.3,00.0,30.7,23.4,09.2,0000.0,0001.03,0000.70,0000.55
2022-11-28 04:49:00,,0813.9,4.99,0.00,21.7,20.2,00.0,30.7,23.3,09.3,0000.0,0001.03,0000.69,0000.54
2022-11-28 04:50:00,,0813.9,5.00,0.00,21.7,20.2,00.0,30.7,23.4,09.2,0000.0,0001.01,0000.68,0000.53
2022-11-28 04:51:00,,0814.1,5.00,0.00,21.7,20.2,00.0,30.7,23.4,09.2,0000.0,0001.03,0000.67,0000.52
2022-11-28 04:52:00,,0814.0,5.00,0.00,21.7,20.2,00.0,30.7,23.4,09.6,0000.0,0001.04,0000.67,0000.53
2022-11-28 04:53:00,,0814.0,5.00,0.00,21.7,20.2,00.0,30.7,23.5,09.8,0000.0,0001.01,0000.67,0000.53
2022-11-28 04:54:00,,0814.1,5.00,0.00,21.7,20.2,00.0,30.7,23.5,09.7,0000.0,0000.94,0000.65,0000.54
2022-11-28 04:55:00,,0814.1,5.00,0.00,21.6,20.2,00.0,30.7,23.5,09.3,0000.0,0000.84,0000.61,0000.53
2022-11-28 04:56:00,,0814.2,5.00,0.00,21.6,20.2,00.0,30.7,23.5,09.6,0000.0,0000.85,0000.61,0000.53
2022-11-28 04:57:00,,0813.9,5.00,0.00,21.6,20.2,00.0,30.6,23.4,09.5,0000.0,0000.84,0000.61,0000.52
2022-11-28 04:58:00,,0814.3,5.00,0.00,21.6,20.2,00.0,30.6,23.3,09.4,0000.0,0001.01,0000.62,0000.52
2022-11-28 04:59:00,,0813.9,5.00,0.00,21.6,20.1,00.0,30.6,23.3,09.5,0000.0,0001.04,0000.61,0000.52
